Location: Trois-Rivi�res
(46.3500°N, 72.5500°W)
Time: 16:45:30
(UTC-05:00)

Vanguard 2 - All Passes

Search period start: 17 January 2018 00:00
Search period end: 27 January 2018 00:00
Orbit: 552 x 2940 km, 32.9° (Epoch: 16 January)

Date Brightness Start Highest point End Pass type
(mag) Time Alt. Az. Time Alt. Az. Time Alt. Az.
17 Jan - 02:45:30 10° S 02:52:01 20° SE 03:00:39 10° E visible
17 Jan - 04:50:11 10° SW 05:00:18 41° SSE 05:14:55 10° E visible
17 Jan - 06:57:55 10° WSW 07:10:35 48° S 07:27:04 10° ESE daylight
17 Jan - 09:07:42 10° W 09:21:28 37° SSW 09:36:39 10° SE daylight
17 Jan - 11:21:30 10° WSW 11:31:18 18° SW 11:40:57 10° S daylight
18 Jan - 03:02:08 10° SSW 03:09:22 25° SE 03:19:29 10° E visible
18 Jan - 05:07:46 10° SW 05:18:03 44° SSE 05:33:02 10° ESE visible
18 Jan - 07:15:51 10° WSW 07:28:29 46° S 07:44:47 10° SE daylight
18 Jan - 09:26:06 10° W 09:39:11 32° SSW 09:53:30 10° SSE daylight
18 Jan - 11:42:46 10° WSW 11:48:40 12° SW 11:54:32 10° SSW daylight
19 Jan - 03:19:09 10° SSW 03:26:50 30° SSE 03:38:01 10° E visible
19 Jan - 05:25:28 10° WSW 05:35:52 46° S 05:51:04 10° ESE visible
19 Jan - 07:33:53 10° WSW 07:46:23 43° SSW 08:02:19 10° SE daylight
19 Jan - 09:44:47 10° W 09:56:51 26° SSW 10:09:56 10° SSE daylight
20 Jan - 01:33:51 10° SSE 01:37:04 13° SE 01:40:50 10° ESE visible
20 Jan - 03:36:26 10° SW 03:44:24 34° SSE 03:56:21 10° E visible
20 Jan - 05:43:15 10° WSW 05:53:45 46° S 06:09:00 10° ESE visible
20 Jan - 07:52:00 10° W 08:04:15 38° SSW 08:19:37 10° SE daylight
20 Jan - 10:03:55 10° WSW 10:14:27 21° SW 10:25:44 10° S daylight
21 Jan - 01:49:35 10° S 01:54:21 17° SE 02:00:32 10° ESE visible
21 Jan - 03:53:55 10° SW 04:02:04 38° SSE 04:14:33 10° ESE visible
21 Jan - 06:01:08 10° WSW 06:11:39 44° S 06:26:48 10° ESE visible
21 Jan - 08:10:17 10° W 08:22:05 33° SSW 08:36:38 10° SSE daylight
21 Jan - 10:23:58 10° WSW 10:32:00 15° SW 10:40:27 10° SSW daylight
22 Jan - 02:06:13 10° SSW 02:11:45 22° SE 02:19:24 10° ESE visible
22 Jan - 04:11:32 10° SW 04:19:50 40° SSE 04:32:38 10° ESE visible
22 Jan - 06:19:06 10° WSW 06:29:34 41° S 06:44:27 10° SE visible
22 Jan - 08:28:47 10° WSW 08:39:52 28° SSW 08:53:16 10° SSE daylight
22 Jan - 10:48:25 10° SW 10:49:32 10° SW 10:50:40 10° SW daylight
23 Jan - 02:23:16 10° SSW 02:29:14 26° SSE 02:37:55 10° ESE visible
23 Jan - 04:29:15 10° WSW 04:37:39 41° S 04:50:38 10° ESE visible
23 Jan - 06:37:09 10° WSW 06:47:29 38° SSW 07:01:53 10° SE visible
23 Jan - 08:47:38 10° WSW 08:57:37 22° SSW 09:09:22 10° S daylight
24 Jan - 02:40:35 10° SW 02:46:50 30° SSE 02:56:13 10° ESE visible
24 Jan - 04:47:04 10° WSW 04:55:31 40° S 05:08:31 10° ESE visible
24 Jan - 06:55:20 10° WSW 07:05:22 33° SSW 07:19:03 10° SE daylight
24 Jan - 09:07:10 10° WSW 09:15:20 17° SW 09:24:37 10° S daylight
25 Jan - 00:54:12 10° S 00:57:13 14° SE 01:00:51 10° ESE visible
25 Jan - 02:58:06 10° SW 03:04:31 33° SSE 03:14:22 10° ESE visible
25 Jan - 05:04:58 10° WSW 05:13:24 38° S 05:26:15 10° SE visible
25 Jan - 07:13:42 10° WSW 07:23:14 28° SSW 07:35:51 10° SSE daylight
25 Jan - 09:28:32 10° SW 09:33:02 12° SW 09:37:50 10° SSW daylight
26 Jan - 01:10:42 10° S 01:14:40 18° SSE 01:19:51 10° ESE visible
26 Jan - 03:15:44 10° SW 03:22:17 35° S 03:32:25 10° ESE visible
26 Jan - 05:22:58 10° WSW 05:31:20 35° S 05:43:47 10° SE visible
26 Jan - 07:32:23 10° WSW 07:41:06 23° SSW 07:52:11 10° SSE daylight
